CW3590 Weather Reports


time (UTC)temp
C
wind
direction
speed
KPH
gust
KPH
rain 1hr
cm
rain 24hr
cm
rain mn
cm
humidity
%
barometer
mb
20260506150010 16 320 1.6 6.4 0.00 0.00 0.00 85 1011.3
20260506145009 16 306 1.6 6.4 0.00 0.00 0.00 85 1011.0
20260506144010 16 332 1.6 8.0 0.00 0.00 0.00 85 1010.9
20260506143010 16 314 3.2 11.3 0.00 0.00 0.00 85 1010.6
20260506142009 16 315 3.2 12.9 0.00 0.00 0.00 85 1010.4
20260506141010 16 325 3.2 12.9 0.00 0.00 0.00 85 1010.7
20260506140010 16 305 3.2 12.9 0.00 0.00 0.00 85 1010.4
20260506135010 16 312 4.8 11.3 0.00 0.00 0.00 85 1010.2
20260506134010 17 296 4.8 12.9 0.00 0.00 0.00 84 1010.1
20260506133009 17 343 3.2 12.9 0.00 0.00 0.00 84 1010.2
20260506132011 17 338 3.2 12.9 0.00 0.00 0.00 84 1010.0
20260506130010 18 316 1.6 12.9 0.00 0.00 0.00 83 1009.8
20260506125010 18 308 1.6 11.3 0.00 0.00 0.00 83 1009.5
20260506124010 19 313 1.6 11.3 0.00 0.00 0.00 83 1009.3
20260506123010 19 292 1.6 6.4 0.00 0.00 0.00 82 1009.1
20260506122010 20 290 1.6 8.0 0.00 0.00 0.00 82 1009.1
20260506121009 20 0 0.0 4.8 0.00 0.00 0.00 82 1008.9
20260506120010 21 0 0.0 3.2 0.00 0.00 0.00 81 1008.8
20260506114009 21 347 3.2 8.0 0.00 0.00 0.00 81 1008.5
20260506111009 23 329 1.6 1.6 0.00 0.00 0.00 87 1007.9
20260506110011 23 310 3.2 9.7 0.00 0.00 0.00 88 1007.7
20260506105009 23 252 1.6 9.7 0.00 0.00 0.00 90 1007.6
20260506104010 23 210 1.6 6.4 0.00 0.00 0.00 90 1007.4
20260506103010 23 213 0.0 8.0 0.00 0.00 0.00 90 1007.3
20260506102010 23 228 1.6 4.8 0.00 0.00 0.00 90 1007.2
20260506101009 23 210 1.6 6.4 0.00 0.00 0.00 90 1007.2
20260506095011 23 185 1.6 6.4 0.00 0.00 0.00 90 1006.9
20260506093009 23 204 1.6 9.7 0.00 0.00 0.00 90 1007.1
20260506092009 23 199 1.6 11.3 0.00 0.00 0.00 90 1007.0
20260506091009 23 189 1.6 9.7 0.00 0.00 0.00 90 1006.8
20260506090009 23 191 1.6 8.0 0.00 0.00 0.00 90 1007.0
20260506085010 23 164 1.6 14.5 0.00 0.00 0.00 90 1006.9
20260506084009 23 189 1.6 9.7 0.00 0.00 0.00 90 1006.8
20260506083010 23 172 3.2 4.8 0.00 0.00 0.00 90 1006.8
20260506082009 23 193 1.6 8.0 0.00 0.00 0.00 90 1006.8
20260506081009 23 227 1.6 6.4 0.00 0.00 0.00 90 1006.9
20260506073009 23 161 1.6 3.2 0.00 0.00 0.00 89 1007.0
20260506072009 23 155 1.6 4.8 0.00 0.00 0.00 89 1006.9
20260506071009 23 0 0.0 4.8 0.00 0.00 0.00 89 1006.9
20260506061009 23 155 1.6 4.8 0.00 0.00 0.00 88 1006.8
20260506051009 24 153 1.6 4.8 0.00 0.00 0.00 86 1006.8
20260506045009 24 178 1.6 8.0 0.00 0.00 0.00 85 1006.7
20260506044009 24 185 0.0 6.4 0.00 0.00 0.00 85 1006.7
20260506043009 24 207 1.6 4.8 0.00 0.00 0.00 85 1006.6
20260506042009 24 157 1.6 3.2 0.00 0.00 0.00 85 1006.5
20260506041009 25 146 1.6 6.4 0.00 0.00 0.00 85 1006.1
20260506040010 25 168 0.0 6.4 0.00 0.00 0.00 85 1006.0
20260506035009 25 0 0.0 4.8 0.00 0.00 0.00 85 1005.9
20260506034010 24 0 0.0 4.8 0.00 0.00 0.00 86 1005.9
20260506033009 25 0 0.0 4.8 0.00 0.00 0.00 85 1005.6
20260506032009 25 0 0.0 1.6 0.00 0.00 0.00 85 1005.4
20260506031009 25 0 0.0 1.6 0.00 0.00 0.00 85 1005.4
20260506030009 25 0 0.0 0.0 0.00 0.00 0.00 84 1005.5
20260506025009 25 0 0.0 6.4 0.00 0.00 0.00 84 1005.6
20260506024009 25 0 0.0 1.6 0.00 0.00 0.00 84 1005.2
20260506023009 25 0 0.0 3.2 0.00 0.00 0.00 83 1005.1
20260506022010 25 0 0.0 3.2 0.00 0.00 0.00 83 1005.3
20260506021009 25 0 0.0 0.0 0.00 0.00 0.00 83 1005.2
20260506015009 26 0 0.0 1.6 0.00 0.00 0.00 81 1005.0
20260506013008 26 0 0.0 3.2 0.00 0.00 0.00 80 1004.9
20260506012009 26 0 0.0 3.2 0.00 0.00 0.00 80 1004.8
20260506011009 26 0 0.0 1.6 0.00 0.00 0.00 79 1004.7
20260506010009 26 0 0.0 0.0 0.00 0.00 0.00 79 1004.5
20260506003009 27 199 1.6 6.4 0.00 0.00 0.00 77 1004.0
20260506002009 27 198 1.6 6.4 0.00 0.00 0.00 77 1003.9
20260506001009 27 185 1.6 9.7 0.00 0.00 0.00 76 1004.0
20260506000008 27 173 1.6 4.8 0.00 0.00 0.00 75 1004.0
20260505235009 27 190 1.6 6.4 0.00 0.00 0.00 75 1004.1
20260505234010 27 178 1.6 11.3 0.00 0.00 0.00 75 1004.0
20260505233009 27 194 1.6 9.7 0.00 0.00 0.00 75 1003.9
20260505231008 27 186 3.2 8.0 0.00 0.00 0.00 74 1003.8
20260505225008 28 165 4.8 11.3 0.00 0.00 0.00 73 1003.6
20260505224008 28 181 3.2 14.5 0.00 0.00 0.00 73 1003.6
20260505222009 28 171 4.8 12.9 0.00 0.00 0.00 73 1003.4
20260505220009 28 194 3.2 11.3 0.00 0.00 0.00 73 1003.7
20260505215008 28 177 4.8 11.3 0.00 0.00 0.00 73 1004.0
20260505213009 27 165 3.2 9.7 0.00 0.00 0.00 74 1004.2
20260505212009 28 185 4.8 11.3 0.00 0.00 0.00 75 1004.3
20260505211009 27 187 4.8 14.5 0.00 0.00 0.00 75 1004.5
20260505210009 27 185 4.8 12.9 0.00 0.00 0.00 74 1004.5
20260505205009 27 196 4.8 11.3 0.00 0.00 0.00 75 1004.6
20260505203009 27 175 6.4 14.5 0.00 0.00 0.00 75 1004.7
20260505202010 27 175 4.8 14.5 0.00 0.00 0.00 75 1004.7
20260505201009 27 185 4.8 12.9 0.00 0.00 0.00 75 1004.7
20260505195009 27 187 4.8 11.3 0.00 0.00 0.00 75 1005.1
20260505193010 26 179 4.8 19.3 0.00 0.00 0.00 76 1005.2
20260505192008 27 190 6.4 14.5 0.00 0.00 0.00 76 1005.1
20260505191010 26 193 4.8 14.5 0.00 0.00 0.00 76 1005.2
20260505190008 26 201 4.8 16.1 0.00 0.00 0.00 77 1005.2
20260505183009 26 184 4.8 19.3 0.00 0.00 0.00 78 1005.6
20260505182009 26 185 4.8 19.3 0.00 0.00 0.00 78 1005.5
20260505181009 25 178 6.4 16.1 0.00 0.00 0.00 79 1005.6
20260505180008 25 183 6.4 17.7 0.00 0.00 0.00 79 1005.8
20260505174009 25 197 6.4 24.1 0.00 0.00 0.00 79 1005.7
20260505173009 25 191 6.4 16.1 0.00 0.00 0.00 79 1005.8
20260505172009 25 193 6.4 22.5 0.00 0.00 0.00 80 1005.9
20260505171008 25 172 6.4 12.9 0.00 0.00 0.00 81 1005.9
20260505170008 25 189 6.4 17.7 0.00 0.00 0.00 80 1005.9
20260505165009 25 184 6.4 19.3 0.00 0.00 0.00 80 1006.0
20260505164008 24 205 6.4 19.3 0.00 0.00 0.00 81 1006.0
20260505163009 24 197 6.4 14.5 0.00 0.00 0.00 82 1006.1
20260505162008 23 196 6.4 16.1 0.00 0.00 0.00 84 1006.1
20260505161008 23 183 6.4 17.7 0.00 0.00 0.00 84 1006.2
20260505153008 22 189 4.8 16.1 0.00 0.00 0.00 85 1006.0
20260505152008 22 184 3.2 12.9 0.00 0.00 0.00 84 1006.1
20260505151008 22 198 4.8 11.3 0.00 0.00 0.00 84 1006.2